Location: Banksville Park
(38.5557°N, 75.1182°W)
Time: 03:03:06
(UTC+00:00)

Cosmos 1733 Rocket - Pass Details

Date: 19 September 2020
Orbit: 602 x 629 km, 82.5° (Epoch: 19 October)

Event Time Altitude Azimuth Distance (km) Brightness Sun altitude
Rises 10:11:57 0° 347° (NNW) 2,881 6.4 -7.5°
Reaches altitude 10° 10:14:12 10° 343° (NNW) 1,968 5.5 -7.0°
Maximum altitude 10:18:26 54° 267° (W) 742 3.1 -6.2°
Drops below altitude 10° 10:22:38 10° 190° (S) 1,942 5.5 -5.4°
Sets 10:24:51 0° 185° (S) 2,839 6.3 -5.0°
